Location: Fontenoy
(49.4072°N, 3.2008°E)
Time: 21:04:04
(UTC+00:00)

Spot 4 - Pass Details

Date: 15 May 2026
Orbit: 698 x 714 km, 98.2° (Epoch: 8 June)

Event Time Altitude Azimuth Distance (km) Brightness Sun altitude
Exits shadow 23:36:12 39° 230° (SW) 1,056 4.4 -21.5°
Maximum altitude 23:37:09 44° 261° (W) 976 4.4 -21.5°
Drops below altitude 10° 23:41:45 10° 334° (NNW) 2,193 7.3 -21.5°
Sets 23:44:08 0° 341° (NNW) 3,120 8.4 -21.5°
